SCP
0 0 0 0 0 0 0 0 0 0 0 0 0 0 0 0 0 0 0 0 0 0 0 0 0 0 0 0 0 0 0 0 0 0 0 0 0 0 0 0 0 0 0 0 0 0 0 0 0
0 0 0 0 0 0 0 0 0 0 0 0 0 0 0 0 0 0 0 0 0 0 0 0 0 0 0 0 0 0 0 0 0 0 0 0 0 0 0 0 0 0 0 0 0 0 0 0 0
0 0 0 0 0 0 0 0 0 0 0 0 0 0 0 0 0 0 0 0 0 0 0 0 0 0 0 0 0 0 0 0 0 0 0 0 0 0 0 0 0 0 0 0 0 0 0 0 0
0 0 0 0 0 0 0 0 0 0 0 0 0 0 0 0 0 0 0 0 0 0 0 0 0 0 0 0 0 0 0 0 0 0 0 0 0 0 0 0 0 0 0 0 0 0 0 0 0
0 0 0 0 0 0 0 0 0 0 0 0 0 0 0 0 0 0 0 0 0 0 0 0 0 0 0 0 0 0 0 0 0 0 0 0 0 0 0 0 0 0 0 0 0 0 0 0 0
0 0 0 0 0 0 0 0 0 0 0 0 0 0 0 0 0 0 0 0 0 0 0 0 0 0 0 0 0 0 0 0 0 0 0 0 0 0 0 0 0 0 0 0 0 0 0 0 0
0 0 0 0 0 0 0 0 0 0 0 0 0 0 0 0 0 0 0 0 0 0 0 0 0 0 0 0 0 0 0 0 0 0 0 0 0 0 0 0 0 0 0 0 0 0 0 0 0
0 0 0 0 0 0 0 0 0 0 0 0 0 0 0 0 0 0 0 0 0 0 0 0 0 0 0 0 0 0 0 0 0 0 0 0 0 0 0 0 0 0 0 0 0 0 0 0 0
0 0 0 0 0 0 0 0 0 0 0 0 0 0 0 0 0 0 0 0 0 0 0 0 0 0 0 0 0 0 0 0 0 0 0 0 0 0 0 0 0 0 0 0 0 0 0 0 0
0 0 0 0 0 0 0 0 0 0 0 0 0 0 0 0 0 0 0 0 0 0 0 0 0 0 0 0 0 0 0 0 0 0 0 0 0 0 0 0 0 0 0 0 0 0 0 0 0
0 0 0 0 0 0 0 0 0 0 0 0 0 0 0 0 0 0 0 0 0 0 0 0 0 0 0 -0 -0 0 0 0 0 0 0 0 0 0 0 0 0 0 0 0 0 0 0 0 0
0 0 0 0 0 0 0 0 0 0 0 0 0 0 0 0 0 0 0 0 0 0 0 0 0 0 0 0 0 -0 -0 0 0 0 0 0 0 0 0 0 0 0 0 0 0 0 0 0 0
0 0 0 0 0 0 0 0 0 0 0 0 0 0 0 0 0 0 0 0 0 0 0 0 0 0 0 0 0 0 0 0 0 0 0 0 0 0 0 0 0 0 0 0 0 0 0 0 0
0 0 0 0 0 0 0 0 0 0 0 0 0 0 0 0 0 0 0 0 0 0 0 0 0 0 0 0 0 0 0 0 0 0 0 0 0 0 0 0 0 0 0 0 0 0 0 0 0
0 0 0 0 0 0 0 0 0 0 0 0 0 0 0 0 0 0 0 0 0 0 0 0 0 0 0 0 0 0 0 0 0 0 0 0 0 0 0 0 0 0 0 0 0 0 0 0 0
0 0 0 0 0 0 0 0 0 0 0 0 0 0 0 0 0 0 0 0 0 0 0 0 0 0 0 0 0 0 0 0 0 0 0 0 0 0 0 0 0 0 0 0 0 0 0 0 0
0 0 0 0 0 0 0 0 0 0 0 0 0 0 0 0 0 0 0 0 0 0 0 0 0 0 0 0 0 0 0 0 0 0 0 0 0 0 0 0 0 0 0 0 0 0 0 0 0
0 0 0 0 0 0 0 0 0 0 0 0 0 0 0 0 0 0 0 0 0 0 0 0 0 0 0 0 0 0 0 0 0 0 0 0 0 0 0 0 0 0 0 0 0 0 0 0 0
0 0 0 0 0 0 0 0 0 0 0 0 0 0 0 0 0 0 0 0 0 0 0 0 0 0 0 0 0 0 0 0 0 0 0 0 0 0 0 0 0 0 0 0 0 0 0 0 0
0 0 0 0 0 0 0 0 0 0 0 0 0 0 0 0 0 0 0 0 0 0 0 0 0 0 0 0 0 0 0 0 0 0 0 0 0 0 0 0 0 0 0 0 0 0 0 0 0
0 0 0 0 0 0 0 0 0 0 0 0 0 0 0 0 0 0 0 0 0 0 0 0 0 0 0 0 0 0 0 0 0 0 0 0 0 0 0 0 0 0 0 0 0 0 0 0 0
0 0 0 0 0 0 0 0 0 0 0 0 0 0 0 0 0 0 0 0 0 0 0 0 0 0 0 0 0 0 0 0 0 0 0 0 0 0 0 0 0 0 0 0 0 0 0 0 0
0 0 0 0 0 0 0 0 0 0 0 0 0 0 0 0 0 0 0 0 0 0 0 0 0 0 0 0 0 0 0 0 0 0 0 0 0 0 0 0 0 0 0 0 0 0 0 0 0
0 0 0 0 0 0 0 0 0 0 0 0 0 0 0 0 0 0 0 0 0 0 0 0 0 0 0 0 0 0 0 0 0 0 0 0 0 0 0 0 0 0 0 0 0 0 0 0 0
0 0 0 0 0 0 0 0 0 0 0 0 0 0 0 0 0 0 0 0 0 0 0 0 0 0 0 0 0 0 0 0 0 0 0 0 0 0 0 0 0 0 0 0 0 0 0 0 0
0 0 0 0 0 0 0 0 0 0 0 0 0 0 0 0 0 0 0 0 0 0 0 0 0 0 0 0 0 0 0 0 0 0 0 0 0 0 0 0 0 0 0 0 0 0 0 0 0
0 0 0 0 0 0 0 0 0 0 0 0 0 0 0 0 0 0 0 0 0 0 0 0 0 0 0 0 0 0 0 0 0 0 0 0 0 0 0 0 0 0 0 0 0 0 0 0 0
0 0 0 0 0 0 0 0 0 0 0 0 0 0 0 0 0 0 0 0 0 0 0 0 0 0 0 0 0 0 0 0 0 0 0 0 0 0 0 0 0 0 0 0 0 0 0 0 0
0 0 0 0 0 0 0 0 0 0 0 0 0 0 0 0 0 0 0 0 0 0 0 0 0 0 0 0 0 0 0 0 0 0 0 0 0 0 0 0 0 0 0 0 0 0 0 0 0
0 0 0 0 0 0 0 0 0 0 0 0 0 0 0 0 0 0 0 0 0 0 0 0 0 0 0 0 0 0 0 0 0 0 0 0 0 0 0 0 0 0 0 0 0 0 0 0 0
Wind_Speed
8 4 3 4 7 5 1 3 4 3 3 2 5 10 8 5 3 4 3 10 12 9 8 9 11 13 13 13 13 13 14 15 15 16 16 16 16 17 17 17 17 17 18 18 18 18 18 17 17
4 3 5 6 5 1 4 2 3 4 6 6 7 7 7 4 4 7 5 10 12 10 8 9 11 13 13 13 13 13 14 15 15 15 15 16 16 16 16 16 17 17 17 17 17 17 16 16 17
3 3 5 5 3 4 3 3 5 3 3 5 6 5 6 5 5 5 8 12 11 9 7 9 12 13 14 14 14 14 14 15 15 15 15 15 15 15 16 16 16 16 16 16 16 16 16 16 16
4 5 5 4 2 4 6 6 6 5 3 6 6 5 3 2 5 8 12 12 12 8 7 9 12 13 14 14 14 14 14 14 15 15 15 15 15 15 15 15 15 15 15 15 15 14 14 15 16
4 4 3 1 3 3 3 6 6 7 5 4 6 5 2 2 11 15 13 13 12 8 6 8 11 12 13 14 14 13 14 14 14 14 14 14 14 14 14 15 15 15 15 14 14 13 13 13 14
4 4 3 2 3 2 3 5 6 5 5 5 6 5 2 4 11 13 12 11 11 9 7 7 10 11 12 12 13 13 13 14 14 14 13 13 13 13 14 14 14 14 14 13 13 12 12 12 13
3 4 4 4 2 2 5 5 8 7 6 6 8 7 4 5 8 12 12 11 9 8 7 6 7 9 11 11 11 12 12 12 13 13 13 12 12 12 12 12 13 13 13 12 11 10 10 11 11
3 4 2 3 4 5 4 4 4 9 6 5 7 10 8 8 9 12 11 10 9 7 7 6 6 6 6 7 11 11 11 11 11 12 11 11 11 11 11 9 11 12 12 11 10 9 9 9 9
2 3 3 4 6 6 3 4 2 3 6 4 3 7 9 13 13 14 11 8 7 8 6 6 7 7 7 6 9 9 10 10 10 9 10 8 5 5 6 7 9 10 10 9 8 7 6 6 7
3 4 7 5 5 6 4 5 7 5 4 3 4 4 11 13 15 15 14 13 11 11 9 7 7 8 7 6 6 4 5 5 5 4 5 4 4 4 5 7 8 8 7 7 6 5 4 3 3
2 5 5 3 2 4 6 6 5 10 4 7 9 12 15 13 14 14 13 13 12 11 10 8 8 8 7 5 5 3 3 3 4 5 4 4 4 3 3 2 3 4 4 2 2 2 1 0 1
2 5 4 3 1 4 6 7 5 6 7 9 14 20 17 16 16 16 15 13 11 11 11 9 9 8 7 6 5 4 4 3 3 4 5 4 3 3 3 2 2 2 1 2 1 1 1 1 1
4 5 4 3 2 3 5 5 5 4 1 7 12 15 16 16 13 11 11 11 10 11 11 11 10 10 8 7 5 5 5 4 4 4 5 5 4 4 4 3 3 3 2 2 2 2 2 1 2
4 4 6 4 2 3 6 3 5 4 4 11 14 15 14 14 13 10 10 11 12 12 12 11 11 10 9 8 6 6 5 5 5 4 5 6 5 5 4 4 3 3 3 3 2 2 2 2 2
2 3 6 4 3 3 6 3 6 5 8 12 13 13 12 11 11 13 14 13 13 13 11 11 11 10 10 9 8 6 6 5 5 5 6 6 5 5 5 4 4 3 3 3 2 2 1 2 2
2 3 5 5 4 3 8 8 8 6 11 12 11 10 11 12 13 12 12 11 11 11 12 11 9 10 10 8 7 5 5 6 5 5 5 6 6 6 5 4 4 4 3 3 2 2 1 2 3
4 7 8 5 4 4 6 7 6 7 10 11 11 11 11 11 11 12 12 12 13 13 13 12 11 11 10 8 6 6 5 5 5 5 5 6 6 6 5 4 4 4 3 3 2 2 2 2 3
9 6 7 8 5 5 6 6 5 6 9 11 11 10 10 13 16 13 13 12 13 13 13 13 12 11 9 7 5 4 4 4 4 5 5 6 5 6 5 4 4 4 3 2 2 2 2 2 3
6 7 7 8 5 7 8 8 8 6 7 9 9 10 11 14 12 10 11 11 11 12 13 14 13 12 9 7 6 6 6 4 4 4 6 7 6 6 6 4 4 4 4 4 3 2 2 2 1
5 6 6 3 2 5 7 9 7 6 8 10 11 12 13 11 8 9 10 11 13 14 14 14 14 13 11 9 7 4 4 3 4 4 5 6 6 6 5 6 4 5 4 4 3 3 2 1 1
9 8 7 5 2 1 3 6 7 7 6 7 7 9 9 12 13 11 11 11 12 13 15 13 14 13 12 9 5 4 3 3 4 4 4 5 6 6 6 6 5 5 4 4 4 4 4 3 2
12 8 7 7 7 5 6 6 8 8 8 9 11 10 11 10 10 10 11 11 11 12 11 12 13 12 12 11 9 9 7 7 6 4 4 4 5 5 5 5 4 4 3 4 4 4 3 3 3
7 6 7 7 6 4 3 4 8 4 8 12 14 13 12 10 10 10 10 10 9 8 8 9 10 11 12 12 12 10 8 6 4 4 5 4 3 3 3 4 4 3 3 3 3 2 3 3 3
4 5 4 3 3 7 9 7 9 7 10 10 11 12 11 9 7 6 5 5 4 4 5 6 9 10 11 12 12 11 10 8 6 5 5 3 2 2 2 2 2 2 2 2 2 2 2 2 2
7 8 4 3 5 9 4 6 11 8 8 9 10 10 9 8 8 7 7 6 6 6 5 5 7 8 9 11 11 11 10 9 8 6 5 4 3 2 2 2 2 2 2 1 1 1 0 0 0
13 13 10 9 8 4 3 9 10 6 4 4 5 5 7 7 7 7 7 6 5 5 5 6 7 7 8 9 9 8 9 6 5 5 5 4 3 3 3 4 4 3 3 3 3 2 2 2 1
11 9 6 7 4 4 6 7 10 4 4 3 4 6 8 8 7 7 6 5 5 5 5 6 6 6 7 8 8 7 7 7 7 6 6 5 4 4 5 5 5 4 4 4 4 3 3 2 2
9 10 6 6 8 6 5 6 7 7 10 9 9 10 8 7 6 6 5 5 4 3 3 4 6 6 6 7 7 7 7 8 8 8 8 7 6 5 6 5 5 5 5 4 4 3 3 3 3
7 8 7 6 6 8 5 9 10 11 12 13 13 10 9 9 8 7 5 5 4 4 4 5 6 7 7 8 8 9 8 9 9 8 8 7 6 6 6 6 6 5 5 5 5 4 4 4 3
5 8 9 9 6 5 5 8 4 5 5 7 9 8 8 8 7 7 6 5 5 5 5 5 6 7 7 8 9 10 9 9 9 8 7 7 7 6 6 6 6 6 5 5 5 4 3 3 3
Wind_Direction
345 358 66 58 53 49 266 243 168 129 83 61 82 90 95 88 131 147 117 130 128 131 129 125 123 120 118 116 113 109 106 103 100 98 95 93 91 90 88 87 86 85 84 85 84 82 79 76 74
341 15 52 59 81 40 273 260 156 145 153 134 84 82 77 70 83 108 122 135 130 130 127 125 123 122 121 119 115 112 110 106 103 100 98 96 94 94 92 91 89 88 87 87 86 83 79 75 74
351 57 76 72 113 190 220 207 157 134 129 103 80 69 101 122 119 125 143 136 125 122 122 127 125 125 123 120 116 113 113 110 107 103 100 98 96 96 94 92 91 89 89 88 86 83 78 74 73
45 44 57 77 243 234 190 196 159 120 74 72 99 72 74 142 140 130 136 131 122 120 124 129 125 125 125 122 118 116 116 114 109 106 102 100 99 98 97 95 93 91 89 88 86 81 77 73 71
58 72 64 24 267 274 184 187 157 127 119 93 99 94 40 16 119 127 133 129 127 125 125 128 124 124 124 124 122 118 118 116 111 108 106 104 103 103 101 99 96 95 93 90 86 81 76 72 69
55 71 100 231 266 267 210 197 139 126 123 109 103 104 90 127 125 134 133 129 130 131 126 124 123 122 122 121 122 120 120 119 115 112 109 107 105 106 105 102 101 99 96 92 87 81 75 68 64
106 114 170 198 229 240 214 182 148 142 142 152 130 111 130 158 140 135 130 127 126 128 125 122 123 121 121 121 121 119 119 118 116 114 109 102 100 102 102 102 102 101 99 94 89 82 75 67 60
131 121 178 193 195 235 207 155 156 146 155 138 126 140 167 184 143 130 126 126 127 129 132 130 125 123 120 120 122 120 119 117 115 114 109 103 99 98 97 95 102 104 102 99 94 87 77 64 53
99 100 202 210 195 227 205 140 112 129 117 85 121 169 168 154 135 131 130 129 138 145 148 144 138 134 129 128 130 126 124 125 123 121 119 109 100 96 96 102 104 107 107 106 102 93 79 55 36
103 172 218 214 201 205 188 159 151 106 96 80 59 92 133 144 144 149 154 157 160 164 166 162 153 149 143 139 136 132 132 134 131 133 128 119 118 115 111 108 111 112 114 113 111 101 77 47 14
184 206 232 247 232 190 165 161 151 128 165 181 164 153 150 154 155 160 166 166 168 167 168 171 165 160 156 147 152 148 142 146 146 149 147 135 127 122 115 112 111 114 116 107 109 88 47 339 319
254 257 246 245 219 171 173 158 150 165 202 187 166 158 160 166 170 172 172 172 169 169 174 174 170 167 165 158 162 161 160 165 166 169 161 148 143 148 153 153 158 159 159 169 175 193 228 241 253
237 265 279 250 201 169 153 166 166 200 216 141 148 157 169 175 176 176 172 171 169 173 175 175 172 172 170 165 171 171 174 178 178 172 171 164 160 167 172 177 182 188 188 191 199 215 232 253 277
230 269 283 268 206 164 151 176 151 204 135 139 156 170 179 182 177 172 175 177 180 179 176 173 174 175 172 174 176 176 178 176 174 179 180 174 169 170 175 183 190 197 198 199 201 210 222 248 272
256 289 289 256 206 179 131 165 206 182 144 155 171 180 186 190 186 187 186 184 184 182 178 176 176 175 176 178 178 176 179 175 179 185 183 179 176 176 177 182 192 199 194 192 197 216 234 269 278
187 197 231 246 193 166 143 211 233 165 155 172 183 188 194 200 200 198 192 189 186 182 183 182 177 176 179 178 176 175 177 178 183 183 184 186 184 180 177 184 198 195 182 182 193 208 242 266 269
201 200 207 234 204 162 159 215 234 169 170 183 192 197 201 207 211 208 198 193 189 187 185 185 182 181 181 177 174 172 173 180 182 181 185 190 187 182 180 193 202 189 184 193 199 205 215 260 274
196 188 187 202 206 162 183 227 241 182 184 195 198 202 205 209 213 206 201 195 190 189 186 186 186 185 178 172 167 167 173 183 181 184 189 188 189 185 183 193 200 186 189 205 207 219 221 248 271
177 172 189 208 200 166 199 224 232 200 199 210 212 212 214 219 218 205 199 192 185 186 186 187 187 186 180 178 182 185 192 187 187 188 189 190 191 191 189 191 195 190 200 211 207 205 232 258 261
225 195 190 206 181 174 207 236 244 216 210 209 208 212 215 219 217 206 198 190 189 188 189 188 189 188 187 189 186 182 176 185 191 191 197 196 196 197 196 196 198 197 202 209 204 193 205 244 196
227 208 190 178 122 131 162 260 252 245 232 233 227 220 215 209 207 202 196 195 192 192 191 190 190 188 188 180 169 161 168 182 195 202 204 205 201 200 199 203 202 197 195 210 212 202 205 231 225
223 215 184 160 148 205 177 225 256 232 236 233 230 224 220 214 207 200 194 193 195 196 191 189 187 187 185 179 181 180 191 200 202 192 194 200 203 204 201 198 193 192 195 209 214 206 205 213 238
207 190 177 177 170 172 196 195 265 225 230 236 230 224 221 213 203 199 195 193 193 188 184 185 183 186 184 184 187 188 195 195 179 176 184 193 191 189 183 181 183 190 196 205 209 208 211 213 231
162 101 83 87 131 212 204 182 251 221 210 223 227 220 215 206 195 190 182 169 167 164 171 176 178 185 185 185 186 188 190 184 177 180 179 175 160 156 162 159 162 163 165 184 202 206 216 229 237
172 147 142 173 211 232 185 195 241 237 221 219 223 214 200 185 174 168 164 163 164 165 171 174 174 180 181 183 186 186 185 181 182 175 169 158 152 145 131 120 115 110 116 117 115 112 108 309 279
194 178 171 178 200 236 187 220 245 252 260 257 229 192 171 175 174 172 169 164 168 171 171 171 172 174 174 176 178 173 169 167 165 159 149 146 139 130 112 102 95 90 84 80 81 80 59 43 27
173 201 173 129 121 164 229 264 295 267 261 240 189 172 182 181 175 169 163 160 165 170 175 175 167 162 162 160 152 150 149 143 136 126 118 115 114 111 104 99 96 89 82 79 83 74 56 46 31
169 155 131 143 155 207 243 236 229 222 228 223 210 202 194 180 171 163 159 156 155 155 150 150 152 149 142 137 134 131 126 123 122 117 114 111 107 104 100 93 90 84 76 72 76 72 55 53 33
158 167 164 157 169 168 213 253 219 208 210 211 212 201 186 180 173 165 157 149 138 130 129 128 129 125 122 120 117 114 111 111 111 111 111 111 104 100 100 100 95 86 77 71 75 68 57 53 34
181 178 164 177 201 183 175 259 252 223 245 222 208 190 181 173 166 159 152 144 137 134 130 126 124 120 118 117 113 111 110 109 108 108 107 107 104 99 101 100 93 86 79 75 78 73 60 51 31